"Sample Date","Sample Time","Sample Value","Units","Flow Rate","Sample Interval","Number Channels","Micron Size 0","Counts/Channel 0","Micron Size 1","Counts/Channel 1","Micron Size 2","Counts/Channel 2","Micron Size 3","Counts/Channel 3","Micron Size 4","Counts/Channel 4","Micron Size 5","Counts/Channel 5","Micron Size 6","Counts/Channel 6","Micron Size 7","Counts/Channel 7","Micron Size 8","Counts/Channel 8","Micron Size 9","Counts/Channel 9","Micron Size 10","Counts/Channel 10","Micron Size 11","Counts/Channel 11","Micron Size 12","Counts/Channel 12","Micron Size 13","Counts/Channel 13","Micron Size 14","Counts/Channel 14","Micron Size 15","Counts/Channel 15","Micron Size 16","Counts/Channel 16","Micron Size 17","Counts/Channel 17","Micron Size 18","Counts/Channel 18","Micron Size 19","Counts/Channel 19","Micron Size 20","Counts/Channel 20","Micron Size 21","Counts/Channel 21","Micron Size 22","Counts/Channel 22","Micron Size 23","Counts/Channel 23","Micron Size 24","Counts/Channel 24","Micron Size 25","Counts/Channel 25","Micron Size 26","Counts/Channel 26","Micron Size 27","Counts/Channel 27","Micron Size 28","Counts/Channel 28","Micron Size 29","Counts/Channel 29","Micron Size 30","Counts/Channel 30","Micron Size 31","Counts/Channel 31"
"04/06/08","20:00:01",18801.000,"cc",28369.197,6.00,6,0.100,8109.000,0.200,3447.000,0.300,2861.000,0.500,3204.000,1.000,1180.000,5.000,0
"04/06/08","20:00:07",19031.000,"cc",28354.412,6.00,6,0.100,8112.000,0.200,3478.000,0.300,2982.000,0.500,3310.000,1.000,1149.000,5.000,0
"04/06/08","20:00:13",18880.000,"cc",28482.354,6.00,6,0.100,8123.000,0.200,3482.000,0.300,2946.000,0.500,3220.000,1.000,1109.000,5.000,0
"04/06/08","20:00:19",19206.000,"cc",28402.334,6.00,6,0.100,8256.000,0.200,3483.000,0.300,2949.000,0.500,3324.000,1.000,1194.000,5.000,0
"04/06/08","20:00:25",19082.000,"cc",28442.840,6.00,6,0.100,8126.000,0.200,3393.000,0.300,2983.000,0.500,3281.000,1.000,1299.000,5.000,0
"04/06/08","20:00:31",18248.000,"cc",28460.113,6.00,6,0.100,7934.000,0.200,3372.000,0.300,2685.000,0.500,3142.000,1.000,1115.000,5.000,0
"04/06/08","20:00:37",18677.000,"cc",28356.043,6.00,6,0.100,8027.000,0.200,3516.000,0.300,2864.000,0.500,3067.000,1.000,1203.000,5.000,0
"04/06/08","20:00:43",19468.000,"cc",28070.844,6.00,6,0.100,8210.000,0.200,3488.000,0.300,3105.000,0.500,3371.000,1.000,1294.000,5.000,0
"04/06/08","20:00:49",20073.000,"cc",28091.453,6.00,6,0.100,8534.000,0.200,3809.000,0.300,3127.000,0.500,3370.000,1.000,1233.000,5.000,0
"04/06/08","20:00:55",19535.000,"cc",28278.453,6.00,6,0.100,8239.000,0.200,3624.000,0.300,3083.000,0.500,3371.000,1.000,1218.000,5.000,0
"04/06/08","20:01:01",19529.000,"cc",28367.926,6.00,6,0.100,8296.000,0.200,3611.000,0.300,3029.000,0.500,3372.000,1.000,1221.000,5.000,0
"04/06/08","20:01:07",19199.000,"cc",28337.908,6.00,6,0.100,8230.000,0.200,3492.000,0.300,3000.000,0.500,3287.000,1.000,1190.000,5.000,0
"04/06/08","20:01:13",19546.000,"cc",28262.936,6.00,6,0.100,8272.000,0.200,3582.000,0.300,2977.000,0.500,3396.000,1.000,1319.000,5.000,0
"04/06/08","20:01:19",19596.000,"cc",28196.932,6.00,6,0.100,8243.000,0.200,3645.000,0.300,3032.000,0.500,3416.000,1.000,1260.000,5.000,0
"04/06/08","20:01:25",19277.000,"cc",28243.475,6.00,6,0.100,8289.000,0.200,3549.000,0.300,2923.000,0.500,3290.000,1.000,1226.000,5.000,0
"04/06/08","20:01:31",19300.000,"cc",28331.279,6.00,6,0.100,8302.000,0.200,3511.000,0.300,2927.000,0.500,3384.000,1.000,1176.000,5.000,0
"04/06/08","20:01:37",19104.000,"cc",28399.356,6.00,6,0.100,8173.000,0.200,3474.000,0.300,2890.000,0.500,3294.000,1.000,1273.000,5.000,0
"04/06/08","20:01:43",19054.000,"cc",28341.227,6.00,6,0.100,8231.000,0.200,3449.000,0.300,2923.000,0.500,3257.000,1.000,1194.000,5.000,0
"04/06/08","20:01:49",18954.000,"cc",28429.725,6.00,6,0.100,8160.000,0.200,3486.000,0.300,2863.000,0.500,3232.000,1.000,1213.000,5.000,0
"04/06/08","20:01:55",19030.000,"cc",28422.260,6.00,6,0.100,8199.000,0.200,3659.000,0.300,2881.000,0.500,3080.000,1.000,1211.000,5.000,0
"04/06/08","20:02:01",19418.000,"cc",28234.852,6.00,6,0.100,8321.000,0.200,3459.000,0.300,3012.000,0.500,3374.000,1.000,1252.000,5.000,0
"04/06/08","20:02:07",19017.000,"cc",28167.955,6.00,6,0.100,8547.000,0.200,3362.000,0.300,2829.000,0.500,3151.000,1.000,1128.000,5.000,0
"04/06/08","20:02:13",19668.000,"cc",28385.057,6.00,6,0.100,8618.000,0.200,3546.000,0.300,2986.000,0.500,3282.000,1.000,1236.000,5.000,0
"04/06/08","20:02:19",20296.000,"cc",28415.297,6.00,6,0.100,8661.000,0.200,3687.000,0.300,3088.000,0.500,3639.000,1.000,1221.000,5.000,0
"04/06/08","20:02:25",20273.000,"cc",28320.672,6.00,6,0.100,8650.000,0.200,3729.000,0.300,3093.000,0.500,3524.000,1.000,1277.000,5.000,0
"04/06/08","20:02:31",19124.000,"cc",28255.936,6.00,6,0.100,8376.000,0.200,3408.000,0.300,2906.000,0.500,3249.000,1.000,1185.000,5.000,0
"04/06/08","20:02:37",20021.000,"cc",28215.805,6.00,6,0.100,8823.000,0.200,3648.000,0.300,3013.000,0.500,3315.000,1.000,1222.000,5.000,0
"04/06/08","20:02:43",20759.000,"cc",28341.461,6.00,6,0.100,8917.000,0.200,3807.000,0.300,3175.000,0.500,3539.000,1.000,1321.000,5.000,0
"04/06/08","20:02:49",22723.000,"cc",28316.504,6.00,6,0.100,9333.000,0.200,4127.000,0.300,3490.000,0.500,4033.000,1.000,1740.000,5.000,0
"04/06/08","20:02:55",19718.000,"cc",28341.205,6.00,6,0.100,8642.000,0.200,3595.000,0.300,2971.000,0.500,3312.000,1.000,1198.000,5.000,0
"04/06/08","20:03:01",19939.000,"cc",28455.484,6.00,6,0.100,8921.000,0.200,3576.000,0.300,2914.000,0.500,3268.000,1.000,1260.000,5.000,0
"04/06/08","20:03:07",19785.000,"cc",28466.217,6.00,6,0.100,8643.000,0.200,3542.000,0.300,2952.000,0.500,3387.000,1.000,1261.000,5.000,0
"04/06/08","20:03:13",20226.000,"cc",28278.910,6.00,6,0.100,9063.000,0.200,3614.000,0.300,3063.000,0.500,3265.000,1.000,1221.000,5.000,0
"04/06/08","20:03:19",19998.000,"cc",28351.742,6.00,6,0.100,9055.000,0.200,3519.000,0.300,2917.000,0.500,3289.000,1.000,1218.000,5.000,0
"04/06/08","20:03:25",18566.000,"cc",28499.311,6.00,6,0.100,8416.000,0.200,3279.000,0.300,2684.000,0.500,3016.000,1.000,1171.000,5.000,0
"04/06/08","20:03:31",18165.000,"cc",28533.123,6.00,6,0.100,8231.000,0.200,3170.000,0.300,2656.000,0.500,2964.000,1.000,1144.000,5.000,0
"04/06/08","20:03:37",18252.000,"cc",28341.690,6.00,6,0.100,8386.000,0.200,3163.000,0.300,2665.000,0.500,2906.000,1.000,1132.000,5.000,0
"04/06/08","20:03:43",19058.000,"cc",27993.553,6.00,6,0.100,8711.000,0.200,3321.000,0.300,2875.000,0.500,2998.000,1.000,1153.000,5.000,0
"04/06/08","20:03:49",17833.000,"cc",28231.582,6.00,6,0.100,8224.000,0.200,3118.000,0.300,2595.000,0.500,2836.000,1.000,1060.000,5.000,0
"04/06/08","20:03:55",18011.000,"cc",28261.449,6.00,6,0.100,8117.000,0.200,3214.000,0.300,2679.000,0.500,2909.000,1.000,1092.000,5.000,0
"04/06/08","20:04:01",18361.000,"cc",28514.869,6.00,6,0.100,8374.000,0.200,3218.000,0.300,2659.000,0.500,3007.000,1.000,1103.000,5.000,0
"04/06/08","20:04:07",18985.000,"cc",28421.777,6.00,6,0.100,8527.000,0.200,3378.000,0.300,2790.000,0.500,3079.000,1.000,1211.000,5.000,0
"04/06/08","20:04:13",18953.000,"cc",28285.039,6.00,6,0.100,8705.000,0.200,3395.000,0.300,2633.000,0.500,3040.000,1.000,1180.000,5.000,0
"04/06/08","20:04:19",18204.000,"cc",28265.955,6.00,6,0.100,8444.000,0.200,3121.000,0.300,2667.000,0.500,2819.000,1.000,1153.000,5.000,0
"04/06/08","20:04:25",19007.000,"cc",28218.514,6.00,6,0.100,8628.000,0.200,3266.000,0.300,2697.000,0.500,3168.000,1.000,1248.000,5.000,0
"04/06/08","20:04:31",20078.000,"cc",28054.432,6.00,6,0.100,9050.000,0.200,3518.000,0.300,2961.000,0.500,3290.000,1.000,1259.000,5.000,0
"04/06/08","20:04:37",18681.000,"cc",28417.674,6.00,6,0.100,8564.000,0.200,3252.000,0.300,2679.000,0.500,3045.000,1.000,1141.000,5.000,0
"04/06/08","20:04:43",18317.000,"cc",28167.389,6.00,6,0.100,8247.000,0.200,3278.000,0.300,2704.000,0.500,2995.000,1.000,1093.000,5.000,0
"04/06/08","20:04:49",18053.000,"cc",28384.750,6.00,6,0.100,8331.000,0.200,3059.000,0.300,2620.000,0.500,2927.000,1.000,1116.000,5.000,0
"04/06/08","20:04:55",17988.000,"cc",28174.600,6.00,6,0.100,8358.000,0.200,3187.000,0.300,2574.000,0.500,2824.000,1.000,1045.000,5.000,0
"04/06/08","20:05:01",18933.000,"cc",28548.590,6.00,6,0.100,8392.000,0.200,3430.000,0.300,2840.000,0.500,3110.000,1.000,1161.000,5.000,0
"04/06/08","20:05:07",18747.000,"cc",28224.711,6.00,6,0.100,8286.000,0.200,3327.000,0.300,2808.000,0.500,3075.000,1.000,1251.000,5.000,0
"04/06/08","20:05:13",19438.000,"cc",28059.096,6.00,6,0.100,8774.000,0.200,3562.000,0.300,2801.000,0.500,3153.000,1.000,1148.000,5.000,0
"04/06/08","20:05:19",19534.000,"cc",28251.641,6.00,6,0.100,8890.000,0.200,3530.000,0.300,2804.000,0.500,3147.000,1.000,1163.000,5.000,0
"04/06/08","20:05:25",19871.000,"cc",28475.762,6.00,6,0.100,9090.000,0.200,3577.000,0.300,2865.000,0.500,3143.000,1.000,1196.000,5.000,0
"04/06/08","20:05:31",19577.000,"cc",28323.035,6.00,6,0.100,8816.000,0.200,3419.000,0.300,2823.000,0.500,3319.000,1.000,1200.000,5.000,0
"04/06/08","20:05:37",19336.000,"cc",28332.383,6.00,6,0.100,8799.000,0.200,3383.000,0.300,2841.000,0.500,3077.000,1.000,1236.000,5.000,0
"04/06/08","20:05:43",19158.000,"cc",28413.148,6.00,6,0.100,8574.000,0.200,3393.000,0.300,2813.000,0.500,3115.000,1.000,1263.000,5.000,0
"04/06/08","20:05:49",19475.000,"cc",28158.266,6.00,6,0.100,8709.000,0.200,3447.000,0.300,2870.000,0.500,3215.000,1.000,1234.000,5.000,0
"04/06/08","20:05:55",19032.000,"cc",28144.996,6.00,6,0.100,8659.000,0.200,3416.000,0.300,2839.000,0.500,3026.000,1.000,1092.000,5.000,0
"04/06/08","20:06:01",18105.000,"cc",28362.549,6.00,6,0.100,8293.000,0.200,3146.000,0.300,2709.000,0.500,2869.000,1.000,1088.000,5.000,0
"04/06/08","20:06:07",18537.000,"cc",28427.518,6.00,6,0.100,8602.000,0.200,3386.000,0.300,2650.000,0.500,2883.000,1.000,1016.000,5.000,0
"04/06/08","20:06:13",18891.000,"cc",28674.842,6.00,6,0.100,8571.000,0.200,3376.000,0.300,2736.000,0.500,3085.000,1.000,1123.000,5.000,0
"04/06/08","20:06:19",18996.000,"cc",28311.932,6.00,6,0.100,8668.000,0.200,3286.000,0.300,2820.000,0.500,3099.000,1.000,1123.000,5.000,0
"04/06/08","20:06:25",19666.000,"cc",28211.412,6.00,6,0.100,8927.000,0.200,3426.000,0.300,2896.000,0.500,3174.000,1.000,1243.000,5.000,0
"04/06/08","20:06:31",19717.000,"cc",28135.494,6.00,6,0.100,8791.000,0.200,3454.000,0.300,2913.000,0.500,3264.000,1.000,1295.000,5.000,0
"04/06/08","20:06:37",19092.000,"cc",28080.414,6.00,6,0.100,8695.000,0.200,3262.000,0.300,2814.000,0.500,3142.000,1.000,1179.000,5.000,0
"04/06/08","20:06:43",19955.000,"cc",28268.301,6.00,6,0.100,9106.000,0.200,3569.000,0.300,2833.000,0.500,3252.000,1.000,1195.000,5.000,0
"04/06/08","20:06:49",19340.000,"cc",28283.164,6.00,6,0.100,8753.000,0.200,3307.000,0.300,2866.000,0.500,3204.000,1.000,1210.000,5.000,0
"04/06/08","20:06:55",19813.000,"cc",28393.699,6.00,6,0.100,8924.000,0.200,3512.000,0.300,2889.000,0.500,3249.000,1.000,1239.000,5.000,0
"04/06/08","20:07:01",19402.000,"cc",28371.873,6.00,6,0.100,8878.000,0.200,3375.000,0.300,2892.000,0.500,3146.000,1.000,1111.000,5.000,0
"04/06/08","20:07:07",19316.000,"cc",28182.088,6.00,6,0.100,8786.000,0.200,3308.000,0.300,2835.000,0.500,3195.000,1.000,1192.000,5.000,0
"04/06/08","20:07:13",19197.000,"cc",28285.934,6.00,6,0.100,8584.000,0.200,3488.000,0.300,2815.000,0.500,3180.000,1.000,1130.000,5.000,0
"04/06/08","20:07:19",19201.000,"cc",28291.666,6.00,6,0.100,8744.000,0.200,3421.000,0.300,2822.000,0.500,3026.000,1.000,1188.000,5.000,0
"04/06/08","20:07:25",19102.000,"cc",28120.356,6.00,6,0.100,8664.000,0.200,3452.000,0.300,2737.000,0.500,3149.000,1.000,1100.000,5.000,0
"04/06/08","20:07:31",18972.000,"cc",28412.223,6.00,6,0.100,8729.000,0.200,3305.000,0.300,2781.000,0.500,3081.000,1.000,1076.000,5.000,0
"04/06/08","20:07:37",19987.000,"cc",28340.838,6.00,6,0.100,9064.000,0.200,3572.000,0.300,2971.000,0.500,3203.000,1.000,1177.000,5.000,0
"04/06/08","20:07:43",20604.000,"cc",28242.481,6.00,6,0.100,9182.000,0.200,3740.000,0.300,3009.000,0.500,3412.000,1.000,1261.000,5.000,0
"04/06/08","20:07:49",19977.000,"cc",28229.861,6.00,6,0.100,9200.000,0.200,3527.000,0.300,2851.000,0.500,3187.000,1.000,1212.000,5.000,0
"04/06/08","20:07:55",19857.000,"cc",28404.471,6.00,6,0.100,8984.000,0.200,3581.000,0.300,2937.000,0.500,3173.000,1.000,1182.000,5.000,0
"04/06/08","20:08:01",20040.000,"cc",28449.471,6.00,6,0.100,9069.000,0.200,3581.000,0.300,2903.000,0.500,3294.000,1.000,1193.000,5.000,0
"04/06/08","20:08:07",19942.000,"cc",28336.844,6.00,6,0.100,8971.000,0.200,3660.000,0.300,2933.000,0.500,3177.000,1.000,1201.000,5.000,0
"04/06/08","20:08:13",19833.000,"cc",28320.191,6.00,6,0.100,8946.000,0.200,3532.000,0.300,2928.000,0.500,3265.000,1.000,1162.000,5.000,0
"04/06/08","20:08:19",20364.000,"cc",28249.281,6.00,6,0.100,9094.000,0.200,3612.000,0.300,3104.000,0.500,3346.000,1.000,1208.000,5.000,0
"04/06/08","20:08:25",20134.000,"cc",28333.104,6.00,6,0.100,9045.000,0.200,3665.000,0.300,3002.000,0.500,3268.000,1.000,1154.000,5.000,0
"04/06/08","20:08:31",20566.000,"cc",28399.029,6.00,6,0.100,9125.000,0.200,3580.000,0.300,3066.000,0.500,3481.000,1.000,1314.000,5.000,0
"04/06/08","20:08:37",19517.000,"cc",28269.795,6.00,6,0.100,8854.000,0.200,3439.000,0.300,2777.000,0.500,3244.000,1.000,1203.000,5.000,0
"04/06/08","20:08:43",19564.000,"cc",28178.623,6.00,6,0.100,8834.000,0.200,3474.000,0.300,2993.000,0.500,3167.000,1.000,1096.000,5.000,0
"04/06/08","20:08:49",19944.000,"cc",28195.199,6.00,6,0.100,8896.000,0.200,3554.000,0.300,2966.000,0.500,3326.000,1.000,1202.000,5.000,0
"04/06/08","20:08:55",20309.000,"cc",28285.191,6.00,6,0.100,9268.000,0.200,3525.000,0.300,3042.000,0.500,3241.000,1.000,1233.000,5.000,0
"04/06/08","20:09:01",20402.000,"cc",28595.785,6.00,6,0.100,9202.000,0.200,3568.000,0.300,3080.000,0.500,3270.000,1.000,1282.000,5.000,0
"04/06/08","20:09:07",19653.000,"cc",28445.488,6.00,6,0.100,8807.000,0.200,3494.000,0.300,3057.000,0.500,3118.000,1.000,1177.000,5.000,0
"04/06/08","20:09:13",20253.000,"cc",28046.975,6.00,6,0.100,9062.000,0.200,3788.000,0.300,2994.000,0.500,3212.000,1.000,1197.000,5.000,0
"04/06/08","20:09:19",23627.000,"cc",28301.924,6.00,6,0.100,9821.000,0.200,4305.000,0.300,3577.000,0.500,4193.000,1.000,1731.000,5.000,0
"04/06/08","20:09:25",20398.000,"cc",28279.264,6.00,6,0.100,9318.000,0.200,3620.000,0.300,3013.000,0.500,3261.000,1.000,1186.000,5.000,0
"04/06/08","20:09:31",20385.000,"cc",28353.016,6.00,6,0.100,9159.000,0.200,3623.000,0.300,3069.000,0.500,3324.000,1.000,1210.000,5.000,0
"04/06/08","20:09:37",20247.000,"cc",28285.926,6.00,6,0.100,9230.000,0.200,3601.000,0.300,2848.000,0.500,3298.000,1.000,1270.000,5.000,0
"04/06/08","20:09:43",20286.000,"cc",28252.481,6.00,6,0.100,9095.000,0.200,3578.000,0.300,3083.000,0.500,3298.000,1.000,1232.000,5.000,0
"04/06/08","20:09:49",20563.000,"cc",28183.473,6.00,6,0.100,9230.000,0.200,3768.000,0.300,3055.000,0.500,3320.000,1.000,1190.000,5.000,0
"04/06/08","20:09:55",20850.000,"cc",28459.496,6.00,6,0.100,9263.000,0.200,3763.000,0.300,3154.000,0.500,3404.000,1.000,1266.000,5.000,0
"04/06/08","20:10:01",20645.000,"cc",28465.406,6.00,6,0.100,9317.000,0.200,3750.000,0.300,3061.000,0.500,3226.000,1.000,1291.000,5.000,0
"04/06/08","20:10:07",20621.000,"cc",28348.330,6.00,6,0.100,9377.000,0.200,3730.000,0.300,3026.000,0.500,3297.000,1.000,1191.000,5.000,0
"04/06/08","20:10:13",20640.000,"cc",28255.869,6.00,6,0.100,9285.000,0.200,3716.000,0.300,3012.000,0.500,3365.000,1.000,1262.000,5.000,0
"04/06/08","20:10:19",20723.000,"cc",28277.856,6.00,6,0.100,9268.000,0.200,3674.000,0.300,3097.000,0.500,3395.000,1.000,1289.000,5.000,0
"04/06/08","20:10:25",19802.000,"cc",28249.762,6.00,6,0.100,8894.000,0.200,3608.000,0.300,2931.000,0.500,3234.000,1.000,1135.000,5.000,0
"04/06/08","20:10:31",19804.000,"cc",28246.699,6.00,6,0.100,8978.000,0.200,3545.000,0.300,2907.000,0.500,3247.000,1.000,1127.000,5.000,0
"04/06/08","20:10:37",19883.000,"cc",28496.953,6.00,6,0.100,8961.000,0.200,3552.000,0.300,3030.000,0.500,3199.000,1.000,1141.000,5.000,0
"04/06/08","20:10:43",20101.000,"cc",28215.984,6.00,6,0.100,9016.000,0.200,3653.000,0.300,2977.000,0.500,3300.000,1.000,1155.000,5.000,0
"04/06/08","20:10:49",18852.000,"cc",28267.471,6.00,6,0.100,8645.000,0.200,3231.000,0.300,2722.000,0.500,3138.000,1.000,1116.000,5.000,0
"04/06/08","20:10:55",19542.000,"cc",28313.559,6.00,6,0.100,8926.000,0.200,3466.000,0.300,2786.000,0.500,3215.000,1.000,1149.000,5.000,0
"04/06/08","20:11:01",20097.000,"cc",28235.147,6.00,6,0.100,8972.000,0.200,3780.000,0.300,2987.000,0.500,3226.000,1.000,1132.000,5.000,0
"04/06/08","20:11:07",20429.000,"cc",28257.891,6.00,6,0.100,9109.000,0.200,3709.000,0.300,2969.000,0.500,3385.000,1.000,1257.000,5.000,0
"04/06/08","20:11:13",20136.000,"cc",28345.020,6.00,6,0.100,9086.000,0.200,3601.000,0.300,3012.000,0.500,3222.000,1.000,1215.000,5.000,0
"04/06/08","20:11:19",19037.000,"cc",28430.580,6.00,6,0.100,8753.000,0.200,3382.000,0.300,2757.000,0.500,3032.000,1.000,1113.000,5.000,0
"04/06/08","20:11:25",18931.000,"cc",28224.990,6.00,6,0.100,8793.000,0.200,3271.000,0.300,2707.000,0.500,3133.000,1.000,1027.000,5.000,0
"04/06/08","20:11:31",25122.000,"cc",28164.697,6.00,6,0.100,10015.000,0.200,4498.000,0.300,3767.000,0.500,4753.000,1.000,2089.000,5.000,0
"04/06/08","20:11:37",19464.000,"cc",28259.902,6.00,6,0.100,9006.000,0.200,3471.000,0.300,2773.000,0.500,3072.000,1.000,1142.000,5.000,0
"04/06/08","20:11:43",19294.000,"cc",28472.293,6.00,6,0.100,8747.000,0.200,3434.000,0.300,2748.000,0.500,3237.000,1.000,1128.000,5.000,0
"04/06/08","20:11:49",19002.000,"cc",28392.711,6.00,6,0.100,8707.000,0.200,3383.000,0.300,2758.000,0.500,3005.000,1.000,1149.000,5.000,0
"04/06/08","20:11:55",18690.000,"cc",28201.150,6.00,6,0.100,8426.000,0.200,3406.000,0.300,2742.000,0.500,2989.000,1.000,1127.000,5.000,0
"04/06/08","20:12:01",19171.000,"cc",28250.721,6.00,6,0.100,8756.000,0.200,3329.000,0.300,2855.000,0.500,3085.000,1.000,1146.000,5.000,0
"04/06/08","20:12:07",18908.000,"cc",28446.522,6.00,6,0.100,8689.000,0.200,3372.000,0.300,2814.000,0.500,2948.000,1.000,1085.000,5.000,0
"04/06/08","20:12:13",19421.000,"cc",28528.129,6.00,6,0.100,8805.000,0.200,3557.000,0.300,2813.000,0.500,3117.000,1.000,1129.000,5.000,0
"04/06/08","20:12:19",20125.000,"cc",28297.998,6.00,6,0.100,9216.000,0.200,3584.000,0.300,3004.000,0.500,3152.000,1.000,1169.000,5.000,0
"04/06/08","20:12:25",20292.000,"cc",28304.918,6.00,6,0.100,9230.000,0.200,3645.000,0.300,2964.000,0.500,3281.000,1.000,1172.000,5.000,0
"04/06/08","20:12:31",19889.000,"cc",28340.084,6.00,6,0.100,9062.000,0.200,3521.000,0.300,2926.000,0.500,3174.000,1.000,1206.000,5.000,0
"04/06/08","20:12:37",19031.000,"cc",28235.053,6.00,6,0.100,8680.000,0.200,3357.000,0.300,2808.000,0.500,3055.000,1.000,1131.000,5.000,0
"04/06/08","20:12:43",20192.000,"cc",28224.107,6.00,6,0.100,9057.000,0.200,3650.000,0.300,2995.000,0.500,3240.000,1.000,1250.000,5.000,0
"04/06/08","20:12:49",19563.000,"cc",28265.660,6.00,6,0.100,8853.000,0.200,3459.000,0.300,2900.000,0.500,3102.000,1.000,1249.000,5.000,0
"04/06/08","20:12:55",19790.000,"cc",28471.678,6.00,6,0.100,9146.000,0.200,3472.000,0.300,2823.000,0.500,3159.000,1.000,1190.000,5.000,0
"04/06/08","20:13:01",19194.000,"cc",28458.643,6.00,6,0.100,8866.000,0.200,3392.000,0.300,2850.000,0.500,3017.000,1.000,1069.000,5.000,0
"04/06/08","20:13:07",19205.000,"cc",28267.813,6.00,6,0.100,8829.000,0.200,3359.000,0.300,2787.000,0.500,3068.000,1.000,1162.000,5.000,0
"04/06/08","20:13:13",19074.000,"cc",28315.297,6.00,6,0.100,8728.000,0.200,3336.000,0.300,2799.000,0.500,3036.000,1.000,1175.000,5.000,0
"04/06/08","20:13:19",18841.000,"cc",28517.008,6.00,6,0.100,8715.000,0.200,3297.000,0.300,2656.000,0.500,2964.000,1.000,1209.000,5.000,0
"04/06/08","20:13:25",18541.000,"cc",28280.215,6.00,6,0.100,8551.000,0.200,3238.000,0.300,2688.000,0.500,2948.000,1.000,1116.000,5.000,0
"04/06/08","20:13:31",19232.000,"cc",28331.846,6.00,6,0.100,8722.000,0.200,3410.000,0.300,2753.000,0.500,3113.000,1.000,1234.000,5.000,0
"04/06/08","20:13:37",19211.000,"cc",28180.648,6.00,6,0.100,8855.000,0.200,3326.000,0.300,2753.000,0.500,3117.000,1.000,1160.000,5.000,0
"04/06/08","20:13:43",18891.000,"cc",28038.928,6.00,6,0.100,8785.000,0.200,3323.000,0.300,2689.000,0.500,3054.000,1.000,1040.000,5.000,0
"04/06/08","20:13:49",19482.000,"cc",28255.252,6.00,6,0.100,8975.000,0.200,3492.000,0.300,2776.000,0.500,3098.000,1.000,1141.000,5.000,0
"04/06/08","20:13:55",19927.000,"cc",28187.371,6.00,6,0.100,9015.000,0.200,3577.000,0.300,2871.000,0.500,3173.000,1.000,1291.000,5.000,0
"04/06/08","20:14:01",19308.000,"cc",28362.080,6.00,6,0.100,8765.000,0.200,3275.000,0.300,2760.000,0.500,3292.000,1.000,1216.000,5.000,0
"04/06/08","20:14:07",18059.000,"cc",28566.387,6.00,6,0.100,8433.000,0.200,3101.000,0.300,2589.000,0.500,2860.000,1.000,1076.000,5.000,0
"04/06/08","20:14:13",18071.000,"cc",28452.344,6.00,6,0.100,8428.000,0.200,3070.000,0.300,2616.000,0.500,2872.000,1.000,1085.000,5.000,0
"04/06/08","20:14:19",18189.000,"cc",28079.738,6.00,6,0.100,8488.000,0.200,3165.000,0.300,2550.000,0.500,2881.000,1.000,1105.000,5.000,0
"04/06/08","20:14:25",18528.000,"cc",28419.033,6.00,6,0.100,8476.000,0.200,3248.000,0.300,2702.000,0.500,2934.000,1.000,1168.000,5.000,0
"04/06/08","20:14:31",18096.000,"cc",28205.475,6.00,6,0.100,8548.000,0.200,3091.000,0.300,2543.000,0.500,2852.000,1.000,1062.000,5.000,0
"04/06/08","20:14:37",18307.000,"cc",28190.606,6.00,6,0.100,8689.000,0.200,3228.000,0.300,2543.000,0.500,2745.000,1.000,1102.000,5.000,0
"04/06/08","20:14:43",19587.000,"cc",28420.838,6.00,6,0.100,8864.000,0.200,3455.000,0.300,2887.000,0.500,3157.000,1.000,1224.000,5.000,0
"04/06/08","20:14:49",19639.000,"cc",28421.055,6.00,6,0.100,9127.000,0.200,3341.000,0.300,2811.000,0.500,3166.000,1.000,1194.000,5.000,0
"04/06/08","20:14:55",18740.000,"cc",28356.434,6.00,6,0.100,8462.000,0.200,3337.000,0.300,2750.000,0.500,3019.000,1.000,1171.000,5.000,1.000
"04/06/08","20:15:01",18553.000,"cc",28255.063,6.00,6,0.100,8597.000,0.200,3217.000,0.300,2669.000,0.500,2957.000,1.000,1113.000,5.000,0
"04/06/08","20:15:07",19243.000,"cc",28410.877,6.00,6,0.100,8832.000,0.200,3448.000,0.300,2783.000,0.500,3072.000,1.000,1108.000,5.000,0
"04/06/08","20:15:13",18359.000,"cc",28183.471,6.00,6,0.100,8524.000,0.200,3166.000,0.300,2571.000,0.500,2940.000,1.000,1158.000,5.000,0
"04/06/08","20:15:19",18583.000,"cc",28379.900,6.00,6,0.100,8595.000,0.200,3223.000,0.300,2663.000,0.500,2923.000,1.000,1179.000,5.000,0
"04/06/08","20:15:25",19388.000,"cc",28348.057,6.00,6,0.100,8757.000,0.200,3458.000,0.300,2832.000,0.500,3118.000,1.000,1223.000,5.000,0
"04/06/08","20:15:31",19857.000,"cc",28274.400,6.00,6,0.100,9155.000,0.200,3418.000,0.300,2885.000,0.500,3236.000,1.000,1163.000,5.000,0
"04/06/08","20:15:37",19384.000,"cc",28207.686,6.00,6,0.100,8930.000,0.200,3459.000,0.300,2779.000,0.500,3084.000,1.000,1132.000,5.000,0
"04/06/08","20:15:43",19465.000,"cc",28146.967,6.00,6,0.100,8751.000,0.200,3510.000,0.300,2894.000,0.500,3170.000,1.000,1140.000,5.000,0
"04/06/08","20:15:49",19305.000,"cc",28375.789,6.00,6,0.100,8869.000,0.200,3449.000,0.300,2787.000,0.500,3055.000,1.000,1145.000,5.000,0
"04/06/08","20:15:55",19681.000,"cc",28322.123,6.00,6,0.100,9037.000,0.200,3419.000,0.300,2806.000,0.500,3248.000,1.000,1171.000,5.000,0
"04/06/08","20:16:01",19462.000,"cc",28254.848,6.00,6,0.100,8800.000,0.200,3350.000,0.300,2921.000,0.500,3169.000,1.000,1222.000,5.000,0
"04/06/08","20:16:07",18682.000,"cc",28063.729,6.00,6,0.100,8673.000,0.200,3370.000,0.300,2711.000,0.500,2860.000,1.000,1068.000,5.000,0
"04/06/08","20:16:13",20534.000,"cc",28206.676,6.00,6,0.100,9252.000,0.200,3780.000,0.300,3048.000,0.500,3242.000,1.000,1212.000,5.000,0
"04/06/08","20:16:19",20675.000,"cc",28282.496,6.00,6,0.100,9521.000,0.200,3717.000,0.300,3012.000,0.500,3236.000,1.000,1189.000,5.000,0